Wind_Speed
35 37 44 66 81 82 79 79 79 77 76 74 73 71 74 77 80 78 72 71 64 60 56 60 59 58 57 56 58 57 52 53 56 54 52 51 51 49 47 49 47 46 42 44 42 41 38 32 31 29 28 22 25 25
33 29 28 44 68 80 79 77 76 78 78 76 73 73 71 74 72 80 78 79 73 57 60 59 58 59 62 63 60 56 55 57 54 53 52 48 50 47 42 44 46 48 44 44 46 42 42 39 34 34 31 30 26 28
25 30 27 28 37 73 77 75 75 75 77 77 74 74 73 73 73 74 75 78 81 67 59 61 61 59 58 55 55 59 57 54 55 54 55 53 50 47 47 46 45 46 45 46 46 42 40 41 40 36 36 39 33 30
23 28 35 33 33 53 73 71 74 75 75 78 78 75 74 73 73 72 71 74 78 80 67 63 64 62 60 57 54 48 49 53 53 51 53 54 51 50 50 48 48 47 46 44 43 40 38 41 38 41 40 40 37 32
23 27 32 30 30 47 56 53 59 74 73 75 78 77 74 73 72 71 71 70 71 71 73 66 63 66 64 59 58 60 56 52 53 54 53 53 51 50 49 51 52 51 46 45 41 37 41 35 38 40 36 38 39 38
20 23 30 27 33 52 46 46 44 50 71 75 74 77 76 73 72 69 68 70 68 64 68 70 70 64 62 65 64 59 57 54 56 53 52 54 51 49 49 49 47 49 47 46 45 43 40 40 37 38 36 36 40 41
17 23 24 32 51 42 36 37 39 38 41 54 71 75 74 70 70 68 68 66 67 66 63 64 66 69 61 57 62 62 55 54 55 56 57 55 52 51 51 50 45 44 46 48 49 48 45 43 42 43 43 40 39 43
18 19 15 29 54 55 31 31 30 27 27 32 41 66 72 70 67 68 69 66 64 65 66 67 69 64 66 67 63 63 60 56 54 55 56 56 53 51 49 45 45 44 46 47 46 44 44 45 46 45 45 44 39 38
12 14 15 23 51 45 30 27 27 35 40 40 40 47 67 70 66 67 68 67 65 65 66 68 67 64 59 60 63 61 62 63 62 59 57 57 56 55 44 43 45 47 47 50 48 48 49 48 47 48 49 48 46 39
13 18 17 32 44 33 31 33 35 34 35 34 32 32 40 48 54 62 68 66 68 67 67 68 65 66 66 61 57 57 57 57 57 60 60 59 56 50 48 47 48 53 50 49 48 48 49 51 51 51 52 52 50 44
13 15 23 27 27 23 28 30 30 27 28 27 29 29 31 37 45 51 59 66 67 69 69 65 64 62 60 58 60 60 60 58 60 58 57 59 60 51 50 49 50 52 53 54 49 48 47 49 51 54 55 55 53 49
17 16 13 21 20 24 26 30 29 25 24 24 23 23 24 27 34 42 50 57 63 64 68 65 63 61 60 60 60 61 61 63 61 59 58 60 54 52 49 49 50 50 52 54 54 51 50 50 49 51 52 52 53 52
15 20 19 22 23 26 27 26 24 23 23 21 22 24 22 26 29 35 41 48 55 59 63 63 63 62 61 60 60 59 60 63 62 64 67 61 56 54 49 48 48 49 49 51 51 49 49 49 51 51 50 48 48 49
17 21 18 23 23 26 26 23 23 25 26 23 22 23 20 23 24 28 33 34 45 47 53 58 60 60 62 61 61 61 58 59 57 65 65 58 59 56 53 50 52 53 52 54 54 52 50 51 51 48 45 45 47 46
29 28 31 31 25 24 27 27 30 30 28 29 28 27 18 14 19 23 32 29 24 37 49 50 53 52 58 59 60 52 42 48 59 63 58 56 56 55 55 55 53 53 57 55 52 50 47 47 46 43 43 41 41 42
36 40 35 29 32 31 31 31 28 27 28 28 26 24 23 19 17 24 34 39 33 27 39 41 37 46 45 48 52 61 60 52 46 53 57 56 56 55 55 55 55 53 53 55 56 58 60 58 54 51 49 48 47 46
24 46 44 48 42 37 32 30 31 34 35 31 30 29 25 28 25 25 33 35 41 41 32 39 48 41 46 51 48 48 53 56 52 55 51 56 56 56 56 56 57 56 54 54 52 52 53 55 57 55 52 52 53 53
14 23 42 54 50 50 47 44 44 42 41 35 33 32 31 33 26 29 30 33 38 35 30 36 35 42 53 54 45 41 41 39 48 51 53 47 45 46 49 52 54 54 53 54 53 52 52 52 53 53 53 52 53 53
11 11 15 23 33 44 49 50 48 46 44 41 40 39 36 29 29 35 33 29 26 23 31 41 41 38 36 38 45 41 45 48 46 34 38 49 59 60 59 61 59 56 54 55 55 54 51 51 53 54 54 55 54 53
12 13 12 9 7 11 19 24 30 37 39 38 34 25 24 25 31 38 36 28 28 30 33 37 44 44 42 37 35 40 42 40 42 44 37 38 43 44 43 40 43 46 50 55 56 55 54 52 49 49 50 51 52 54
12 10 7 6 3 3 2 4 6 7 12 20 18 16 17 27 25 39 41 23 20 23 24 26 25 33 36 37 43 45 36 34 33 37 48 51 48 46 46 47 47 44 46 43 41 38 38 40 44 46 47 50 52 53
19 14 14 10 8 7 6 4 1 2 5 8 18 14 22 27 27 27 28 32 30 23 19 24 28 23 27 32 34 32 30 30 26 33 34 34 36 39 45 47 46 46 45 42 44 44 45 47 49 49 51 52 54 56
23 20 16 17 16 13 9 6 4 2 2 12 15 16 24 30 26 29 29 28 25 23 22 23 24 27 27 28 27 26 27 29 30 30 32 32 31 30 30 31 39 48 51 53 54 56 54 52 54 55 56 56 57 57
31 26 22 21 18 17 16 15 15 11 9 9 14 19 28 29 29 25 27 26 23 21 22 23 23 22 24 27 26 29 32 33 33 32 32 33 34 34 36 36 35 34 35 35 35 35 37 41 43 45 47 49 50 50
24 27 35 34 28 24 23 21 17 18 14 16 15 14 17 24 25 27 27 27 27 28 28 25 25 25 24 24 25 25 27 31 36 40 42 43 42 40 38 37 38 38 38 39 40 40 40 40 39 41 44 46 48 50
23 24 22 18 23 31 32 28 26 24 23 24 25 26 25 25 26 26 27 29 31 32 33 31 31 30 32 34 32 31 32 33 35 38 39 42 45 47 48 49 49 48 48 50 51 52 53 53 53 52 49 50 51 52
11 13 14 14 15 14 14 15 16 17 26 30 31 27 28 33 34 33 32 32 32 34 36 37 38 40 41 41 42 43 43 41 39 37 37 38 40 42 43 44 45 47 47 47 48 48 49 51 52 53 54 56 56 57
5 10 12 14 14 15 14 13 11 12 14 15 17 22 31 35 36 37 40 42 44 45 47 50 52 52 52 52 50 48 46 44 42 39 38 37 36 36 36 38 40 40 40 40 42 44 44 44 44 45 46 46 47 47
8 7 7 6 6 6 9 10 7 6 7 11 12 14 12 14 17 21 24 27 30 33 30 34 25 29 26 27 32 33 42 46 47 45 44 40 38 38 36 34 32 33 34 34 32 31 31 32 33 32 31 29 27 24
16 14 13 13 12 11 10 9 8 7 6 5 5 5 6 7 9 10 12 12 12 13 14 16 18 19 20 19 19 18 19 21 24 26 27 27 28 28 29 28 26 25 23 21 20 20 19 17 14 12 10 11 14 16
20 19 19 17 17 16 15 13 11 10 8 8 7 6 5 4 5 4 5 5 4 4 4 3 3 4 5 7 10 13 17 18 20 20 18 16 15 14 14 14 14 15 14 13 11 12 16 18 18 18 18 18 18 17
11 10 10 10 10 9 8 6 5 4 4 3 3 5 8 9 11 13 13 12 12 12 12 12 14 15 16 17 17 18 18 19 20 20 20 20 21 21 22 24 25 26 25 22 22 22 21 21 19 17 17 20 24 28
18 19 20 20 20 19 19 19 19 18 18 18 18 18 17 17 17 18 18 20 22 22 22 22 21 21 22 22 23 24 25 27 29 31 32 32 30 29 28 27 25 23 23 22 23 25 27 30 31 31 30 28 26 24
Wind_Direction
255 251 233 221 221 221 221 221 221 221 222 222 223 224 226 224 225 226 221 225 227 228 228 229 231 232 233 231 231 227 228 231 236 241 238 237 236 243 247 245 245 244 254 247 250 257 265 264 262 268 269 271 266 260
250 246 232 224 216 219 220 221 221 221 221 222 222 224 225 228 227 226 225 225 228 225 226 226 226 228 229 230 230 235 235 235 236 235 238 241 237 238 243 247 245 247 252 257 249 256 261 263 268 270 273 268 267 265
230 215 214 195 220 210 216 217 221 219 222 223 222 223 225 225 228 229 228 227 227 222 227 228 228 227 224 224 231 234 236 236 237 237 238 237 236 236 240 243 243 246 251 253 256 256 258 258 259 266 274 273 265 264
216 217 203 216 220 208 203 211 218 220 219 223 222 223 223 226 227 230 230 228 228 227 221 227 230 233 231 222 221 230 236 233 230 231 233 235 236 236 238 239 236 240 248 254 256 263 267 259 255 256 261 266 268 261
216 225 210 220 219 185 195 198 216 219 220 222 223 223 223 224 226 228 232 233 228 230 227 221 228 231 232 232 227 228 229 232 231 232 233 234 236 237 238 239 241 243 249 252 256 257 265 262 258 260 264 266 264 263
223 228 223 219 194 176 182 197 209 221 221 220 224 224 223 223 226 226 227 232 234 229 230 225 224 224 230 231 232 231 235 238 237 237 238 235 234 236 239 240 241 246 247 250 252 252 256 259 262 264 261 261 262 260
232 230 233 212 179 162 194 207 213 219 222 226 225 225 226 224 224 226 226 226 231 236 232 230 230 228 220 224 227 231 235 236 237 237 237 237 237 238 236 239 240 243 247 249 250 252 253 256 255 258 261 257 258 261
234 234 250 196 184 176 183 194 203 208 214 228 234 228 224 225 224 226 227 226 226 227 229 233 232 230 232 229 229 230 235 236 235 235 236 236 239 241 241 233 239 243 246 249 252 252 252 252 253 256 261 258 253 255
234 228 182 187 184 179 193 199 194 189 193 199 213 228 228 226 227 224 226 226 225 226 228 230 235 232 231 235 236 238 239 240 238 239 242 242 238 237 245 245 244 246 248 249 250 252 255 254 253 253 254 255 256 253
75 125 127 174 168 171 184 192 202 204 208 216 224 231 235 233 229 227 224 224 226 226 226 229 232 233 233 232 236 238 239 241 244 247 244 239 242 239 239 241 242 248 251 253 256 257 259 259 255 252 252 252 251 251
116 140 141 171 175 190 205 207 213 216 218 226 227 232 238 238 233 227 225 224 224 225 226 227 229 230 233 232 233 235 239 240 242 244 246 247 244 243 244 244 245 245 248 250 252 252 254 258 256 253 252 251 251 250
146 164 180 172 181 198 207 203 207 217 220 224 226 234 239 236 232 228 225 224 226 227 228 228 231 231 232 234 233 233 236 239 239 242 242 247 248 247 245 243 243 244 246 249 250 252 253 254 257 256 256 257 258 257
161 154 171 183 196 204 208 212 212 210 212 224 233 244 247 240 234 227 223 226 225 228 228 229 229 230 232 234 236 236 239 240 241 243 243 244 245 245 244 242 244 243 244 246 248 249 252 253 252 253 256 258 262 258
183 182 201 197 203 213 218 223 226 218 210 211 222 230 239 240 241 230 219 220 226 225 227 227 226 228 230 231 233 235 239 242 239 243 242 244 241 240 240 237 238 242 246 247 248 251 251 252 254 256 256 256 256 257
198 180 170 184 206 217 221 222 228 231 232 221 227 232 238 261 235 227 212 197 208 215 218 220 224 227 227 228 231 230 235 247 244 243 246 245 245 242 240 240 238 238 239 242 245 248 249 250 249 248 248 249 254 255
209 208 202 195 199 202 212 224 227 221 224 232 236 230 268 253 252 221 214 204 195 203 210 208 210 213 221 227 228 227 219 218 233 246 247 246 246 245 243 242 242 240 239 242 245 247 248 251 253 253 253 252 251 252
214 211 215 214 208 207 211 225 237 233 231 238 236 234 237 273 264 229 213 215 214 212 205 208 207 203 212 221 226 228 231 236 239 241 241 247 248 248 247 246 244 244 243 242 242 243 246 249 251 253 254 255 257 258
226 216 217 223 229 229 238 243 243 244 246 245 239 246 263 275 229 211 215 211 212 214 212 215 215 220 220 222 224 225 227 230 230 231 230 228 233 241 243 241 240 241 242 242 243 241 239 244 248 250 249 250 251 253
212 211 218 222 228 235 241 243 247 249 250 250 253 259 263 242 207 192 191 195 197 213 220 207 217 222 219 221 222 228 229 228 229 228 233 236 234 237 242 247 248 249 250 248 246 247 245 242 243 245 247 247 247 248
182 163 142 130 151 204 228 241 243 246 249 251 253 237 216 216 200 190 184 184 193 216 221 217 217 219 218 212 218 225 224 226 229 219 214 220 222 226 233 238 239 241 245 249 250 250 250 250 248 246 246 249 250 251
182 168 168 159 141 158 140 167 231 248 242 224 216 222 224 194 190 195 202 196 205 219 219 211 216 220 225 231 228 223 227 229 226 228 228 232 230 228 233 238 250 245 239 237 237 242 247 247 248 247 248 248 248 248
200 201 189 181 169 148 127 109 139 206 218 208 203 199 189 180 187 178 187 193 200 205 216 222 223 219 225 232 239 235 226 226 240 234 233 236 237 239 240 240 236 235 233 233 236 243 247 245 245 246 248 252 256 259
216 216 217 220 213 183 176 188 180 239 215 204 201 184 182 184 178 186 190 194 204 207 221 230 233 231 231 231 231 229 230 238 244 241 239 241 237 245 243 239 238 239 244 249 249 251 251 252 254 255 257 259 260 262
218 219 221 219 222 222 240 237 236 239 228 212 202 208 203 198 196 202 204 210 222 229 233 234 228 231 233 236 238 238 236 229 226 225 229 234 238 241 244 247 249 249 246 248 251 253 255 258 261 262 263 264 265 266
223 226 228 230 228 231 238 246 247 240 232 225 221 210 204 208 211 213 222 227 223 225 231 234 236 241 243 246 249 248 245 242 242 241 241 243 244 242 240 240 242 245 247 249 251 255 257 258 260 262 262 262 264 265
237 237 234 236 238 239 238 238 245 245 244 241 233 227 225 227 226 222 220 225 231 235 239 236 241 251 253 257 256 257 261 255 249 245 245 246 247 248 248 249 250 251 253 256 259 261 263 266 266 268 266 264 264 265
253 243 233 238 237 235 238 242 244 241 243 241 241 241 240 236 238 236 233 240 248 251 251 252 252 253 255 256 259 264 266 267 263 258 253 251 250 251 251 251 252 253 255 256 258 258 259 261 262 263 264 265 266 267
186 189 198 211 226 233 233 239 241 240 233 232 233 235 240 240 242 243 240 242 243 246 250 252 254 256 258 260 260 258 256 254 252 251 252 253 251 250 249 249 249 250 251 253 255 256 259 262 263 264 265 265 267 269
92 113 146 160 188 200 204 209 204 198 201 207 210 220 224 220 218 222 227 234 240 246 252 251 253 250 249 246 245 247 248 247 247 248 249 249 251 253 252 252 252 253 252 254 257 258 259 259 259 260 261 262 260 259
87 94 102 110 115 118 127 142 155 156 159 164 163 170 184 204 210 218 223 226 231 235 237 237 239 240 239 238 235 232 229 228 230 233 234 238 241 241 241 244 247 247 245 241 239 241 246 249 246 235 208 179 161 154
84 85 88 93 99 102 103 105 109 112 114 117 118 118 125 143 157 178 190 180 186 189 189 180 176 190 209 216 218 221 224 224 227 227 227 217 211 210 210 210 208 208 208 205 187 161 145 142 143 142 141 141 140 141
74 75 79 83 89 88 83 81 79 79 78 87 113 157 164 156 138 120 119 122 121 120 121 123 123 120 114 112 113 116 118 122 123 126 128 131 132 134 135 134 132 129 128 129 134 136 136 136 136 136 134 131 129 128
87 88 89 90 88 88 88 89 87 86 85 85 87 93 105 118 128 131 130 123 118 114 111 110 111 113 114 114 111 110 110 111 112 114 116 118 119 119 119 119 121 123 126 127 125 123 121 122 122 122 122 123 123 125
Height
5292 5294 5299 5310 5327 5345 5362 5378 5393 5408 5421 5432 5446 5457 5470 5481 5491 5502 5515 5526 5531 5537 5549 5558 5568 5576 5584 5591 5599 5606 5610 5614 5621 5627 5631 5637 5642 5648 5654 5659 5665 5671 5674 5674 5675 5677 5681 5688 5690 5693 5695 5696 5696 5697
5279 5283 5287 5293 5308 5326 5343 5360 5375 5390 5403 5415 5428 5441 5453 5464 5472 5485 5498 5509 5515 5521 5532 5541 5553 5562 5570 5581 5586 5591 5597 5604 5609 5613 5620 5625 5630 5636 5644 5649 5655 5658 5667 5667 5669 5671 5673 5676 5680 5681 5684 5687 5688 5689
5269 5273 5279 5286 5295 5305 5324 5343 5356 5370 5384 5397 5411 5425 5437 5449 5458 5468 5478 5488 5495 5508 5518 5526 5540 5549 5557 5564 5572 5578 5584 5591 5596 5601 5608 5612 5617 5623 5630 5636 5644 5649 5651 5655 5658 5662 5665 5666 5670 5673 5673 5674 5679 5681
5263 5268 5273 5278 5283 5293 5313 5330 5342 5355 5369 5381 5395 5408 5421 5433 5443 5453 5461 5471 5481 5493 5501 5516 5525 5535 5544 5549 5557 5564 5572 5577 5582 5587 5591 5598 5604 5610 5618 5624 5632 5637 5640 5644 5648 5652 5655 5657 5659 5660 5662 5664 5669 5672
5259 5262 5268 5272 5278 5289 5306 5321 5330 5342 5355 5366 5378 5392 5406 5418 5428 5439 5448 5457 5465 5476 5487 5504 5512 5519 5528 5534 5541 5550 5557 5563 5569 5573 5577 5585 5592 5598 5604 5611 5620 5627 5631 5634 5638 5641 5641 5645 5647 5649 5652 5654 5658 5662
5256 5259 5264 5269 5275 5290 5306 5315 5323 5331 5342 5352 5364 5375 5391 5403 5414 5425 5434 5441 5450 5460 5472 5485 5494 5503 5512 5519 5527 5535 5542 5549 5554 5560 5567 5573 5579 5584 5589 5601 5610 5614 5617 5620 5625 5627 5630 5633 5635 5638 5642 5643 5645 5650
5252 5255 5259 5266 5275 5288 5303 5310 5316 5325 5333 5341 5349 5361 5374 5388 5399 5408 5417 5430 5437 5448 5458 5465 5475 5487 5497 5504 5512 5521 5528 5534 5541 5547 5553 5560 5566 5570 5578 5593 5599 5602 5604 5607 5611 5615 5619 5622 5624 5625 5629 5632 5635 5638
5249 5252 5255 5261 5271 5285 5297 5305 5311 5321 5329 5334 5337 5346 5359 5373 5386 5393 5402 5415 5425 5432 5442 5448 5458 5476 5484 5492 5501 5508 5515 5522 5525 5532 5538 5544 5551 5555 5565 5583 5585 5588 5590 5594 5597 5602 5606 5609 5612 5615 5617 5621 5622 5626
5247 5249 5254 5260 5271 5286 5294 5301 5309 5318 5321 5326 5330 5338 5349 5360 5369 5376 5388 5398 5408 5417 5423 5432 5449 5464 5471 5480 5487 5495 5501 5505 5510 5515 5522 5530 5533 5540 5563 5569 5572 5574 5577 5581 5583 5588 5592 5596 5598 5602 5604 5608 5611 5613
5250 5253 5259 5265 5277 5286 5293 5299 5305 5311 5318 5325 5330 5335 5339 5345 5352 5363 5374 5383 5391 5400 5408 5420 5436 5447 5460 5469 5475 5483 5486 5488 5492 5499 5507 5511 5521 5538 5546 5553 5558 5561 5565 5569 5571 5573 5577 5581 5584 5586 5591 5594 5598 5599
5259 5263 5268 5275 5280 5286 5290 5295 5301 5309 5314 5319 5323 5328 5332 5336 5343 5350 5359 5368 5376 5383 5395 5412 5422 5434 5445 5456 5463 5465 5465 5472 5474 5484 5491 5495 5513 5531 5532 5538 5543 5547 5551 5555 5557 5559 5562 5566 5569 5572 5575 5579 5583 5586
5267 5268 5272 5277 5282 5285 5289 5294 5298 5303 5309 5314 5318 5322 5326 5328 5332 5338 5346 5354 5361 5371 5384 5401 5412 5423 5432 5436 5443 5448 5453 5452 5459 5470 5476 5481 5511 5515 5517 5522 5528 5532 5536 5539 5542 5544 5547 5551 5555 5559 5562 5564 5567 5570
5269 5272 5275 5278 5281 5282 5285 5290 5294 5299 5304 5308 5312 5316 5318 5321 5323 5327 5336 5343 5350 5359 5373 5389 5400 5407 5415 5422 5425 5431 5433 5439 5447 5451 5457 5480 5497 5497 5503 5509 5513 5517 5521 5524 5527 5529 5532 5534 5539 5544 5548 5550 5553 5556
5269 5272 5274 5275 5277 5279 5282 5285 5288 5294 5299 5302 5306 5309 5312 5315 5317 5322 5328 5334 5341 5351 5362 5373 5381 5391 5399 5405 5409 5414 5419 5423 5427 5432 5448 5471 5474 5483 5489 5494 5497 5502 5505 5509 5512 5514 5518 5521 5525 5529 5532 5535 5539 5542
5265 5268 5269 5269 5273 5275 5276 5278 5283 5287 5292 5297 5300 5304 5308 5309 5311 5315 5321 5327 5333 5340 5348 5358 5367 5376 5384 5388 5393 5400 5408 5404 5411 5425 5440 5450 5457 5465 5471 5477 5482 5486 5490 5493 5497 5501 5504 5506 5511 5515 5519 5522 5526 5528
5257 5260 5262 5266 5267 5268 5270 5273 5277 5281 5285 5289 5294 5299 5301 5304 5305 5308 5313 5320 5326 5333 5339 5348 5355 5360 5367 5371 5374 5379 5391 5396 5405 5413 5423 5431 5439 5445 5451 5457 5464 5469 5474 5478 5482 5485 5489 5492 5496 5501 5505 5509 5512 5515
5244 5250 5252 5256 5259 5263 5265 5267 5269 5272 5275 5281 5288 5291 5294 5296 5298 5301 5306 5311 5319 5325 5331 5336 5342 5348 5353 5356 5362 5369 5379 5390 5396 5403 5410 5416 5422 5427 5433 5440 5446 5452 5457 5462 5466 5469 5472 5476 5481 5485 5489 5493 5496 5499
5236 5238 5242 5246 5248 5252 5254 5257 5260 5262 5266 5274 5279 5283 5284 5286 5289 5293 5298 5304 5311 5316 5321 5326 5333 5335 5340 5346 5354 5361 5369 5376 5383 5389 5395 5401 5405 5410 5416 5421 5427 5432 5438 5444 5449 5453 5456 5461 5465 5469 5473 5477 5480 5483
5232 5234 5235 5237 5239 5242 5246 5249 5250 5252 5257 5263 5268 5272 5275 5277 5280 5287 5293 5299 5304 5311 5314 5318 5322 5327 5333 5339 5346 5352 5358 5365 5370 5376 5381 5386 5392 5396 5400 5404 5411 5416 5421 5427 5432 5438 5442 5445 5448 5452 5456 5459 5462 5465
5231 5232 5233 5234 5235 5237 5239 5242 5244 5245 5249 5254 5259 5262 5266 5269 5274 5281 5287 5293 5298 5301 5306 5311 5315 5321 5325 5330 5336 5342 5346 5352 5358 5365 5368 5372 5376 5380 5385 5390 5395 5400 5405 5409 5414 5419 5424 5428 5432 5435 5439 5442 5446 5449
5233 5234 5235 5236 5236 5237 5239 5240 5241 5244 5247 5250 5254 5257 5260 5264 5270 5277 5282 5288 5294 5298 5302 5307 5310 5314 5319 5324 5329 5334 5338 5343 5348 5353 5358 5361 5365 5369 5374 5380 5384 5388 5391 5395 5400 5404 5408 5412 5416 5419 5422 5425 5428 5431
5231 5233 5234 5235 5237 5238 5240 5241 5243 5245 5247 5248 5250 5253 5256 5262 5268 5274 5280 5285 5289 5295 5299 5302 5306 5310 5314 5318 5322 5326 5331 5335 5339 5342 5347 5351 5355 5358 5362 5366 5371 5375 5379 5383 5387 5390 5394 5398 5401 5404 5406 5409 5412 5414
5228 5230 5231 5233 5235 5237 5240 5241 5243 5245 5247 5249 5251 5253 5257 5261 5265 5271 5276 5281 5286 5290 5293 5297 5301 5305 5309 5313 5316 5320 5323 5327 5332 5335 5339 5343 5345 5348 5352 5355 5358 5362 5366 5369 5373 5377 5381 5384 5386 5389 5392 5394 5397 5399
5223 5226 5228 5229 5231 5234 5237 5240 5243 5245 5247 5249 5251 5254 5257 5260 5263 5267 5272 5276 5280 5284 5288 5292 5295 5298 5301 5305 5309 5312 5316 5320 5324 5327 5330 5333 5336 5339 5342 5346 5349 5353 5356 5359 5361 5364 5367 5370 5372 5375 5377 5379 5382 5384
5217 5220 5222 5224 5228 5231 5234 5236 5239 5242 5245 5248 5249 5252 5254 5258 5261 5265 5269 5273 5276 5279 5282 5285 5288 5291 5294 5297 5300 5303 5306 5310 5313 5317 5320 5323 5327 5329 5332 5335 5338 5341 5344 5347 5350 5352 5355 5357 5360 5362 5363 5365 5367 5369
5210 5213 5216 5219 5222 5225 5229 5230 5233 5235 5238 5241 5244 5247 5250 5252 5255 5259 5264 5267 5269 5271 5273 5276 5278 5281 5284 5287 5290 5292 5295 5298 5301 5305 5307 5310 5313 5316 5320 5323 5326 5329 5332 5334 5337 5339 5341 5343 5345 5346 5348 5349 5351 5353
5206 5208 5212 5216 5218 5220 5222 5224 5225 5226 5229 5231 5236 5239 5241 5243 5247 5252 5256 5258 5259 5261 5262 5265 5267 5270 5273 5276 5279 5281 5284 5286 5289 5291 5294 5297 5299 5302 5305 5308 5311 5314 5316 5318 5320 5322 5324 5326 5328 5330 5332 5334 5335 5337
5203 5205 5208 5212 5214 5216 5218 5219 5220 5222 5223 5225 5227 5228 5230 5233 5238 5242 5245 5246 5247 5249 5251 5253 5255 5257 5260 5262 5265 5267 5269 5272 5276 5279 5282 5284 5287 5289 5292 5294 5297 5299 5302 5304 5306 5308 5310 5312 5314 5315 5316 5317 5318 5319
5205 5206 5207 5209 5211 5212 5214 5217 5218 5219 5221 5221 5223 5224 5225 5227 5229 5230 5232 5234 5236 5238 5240 5242 5243 5245 5246 5246 5248 5250 5254 5257 5261 5265 5268 5271 5274 5278 5280 5283 5286 5288 5291 5293 5295 5297 5298 5299 5300 5301 5303 5304 5306 5308
5211 5211 5211 5212 5212 5213 5215 5216 5217 5218 5220 5221 5222 5223 5224 5225 5226 5227 5229 5230 5232 5233 5234 5235 5236 5237 5238 5239 5240 5241 5243 5245 5248 5252 5255 5259 5262 5266 5269 5273 5276 5279 5281 5283 5285 5287 5289 5291 5293 5295 5297 5299 5302 5305
5219 5219 5219 5219 5219 5219 5219 5220 5220 5221 5221 5222 5223 5223 5224 5225 5225 5226 5227 5228 5229 5230 5231 5231 5232 5232 5232 5233 5234 5235 5237 5240 5243 5246 5249 5253 5257 5260 5264 5267 5270 5273 5276 5279 5281 5284 5287 5290 5293 5296 5299 5302 5305 5308
5226 5225 5225 5224 5224 5224 5223 5223 5223 5223 5223 5223 5223 5224 5225 5226 5226 5228 5229 5229 5231 5231 5232 5233 5234 5235 5235 5236 5237 5238 5239 5240 5242 5245 5248 5251 5255 5259 5263 5266 5270 5274 5278 5282 5285 5288 5291 5294 5297 5300 5303 5305 5308 5312
5231 5230 5229 5229 5229 5228 5228 5228 5228 5227 5227 5227 5227 5227 5227 5228 5230 5231 5233 5235 5236 5237 5238 5239 5239 5240 5241 5243 5244 5245 5247 5249 5251 5254 5257 5260 5263 5267 5270 5274 5277 5280 5284 5287 5290 5293 5296 5299 5303 5307 5310 5313 5316 5319